Regional Weather Roundup
Issued by NWS Kansas City/Pleasant Hill, MO

Home | Current Version | Previous Version | Graphics & Text | Print | Product List | Glossary Off
Versions: 1 2 3 4 5 6 7 8 9 10 11 12 13 14 15 16 17 18 19 20 21 22 23 24 25 26 27

000
ASUS43 KEAX 050810
RWREAX

WEATHER ROUNDUP FOR EASTERN KANSAS AND NORTHWEST MISSOURI
NATIONAL WEATHER SERVICE KANSAS CITY/PLEASANT HILL MO
300 AM CDT THU MAY 05 2016

KSZ040-057-103>105-MOZ028-029-037-043-050900-
...KANSAS CITY METROPOLITAN AREA...

CITY           SKY/WX    TMP DP  RH WIND       PRES   REMARKS
K.C. INTL      PTCLDY    50  40  68 NW8       30.00F
K.C. DOWNTOWN  CLEAR     49  43  80 CALM      30.00F
LEES SUMMIT    CLEAR     49  40  71 SW3       30.00F
OLATHE - IXD   CLEAR     49  39  68 W5        30.02S
OLATHE - OJC   CLEAR     51  39  63 NW6       30.01S
LAWRENCE       CLEAR     42  40  92 NW6       30.01F

$$

MOZ001>008-011>017-020>025-030>033-038>040-044>046-053-054-050900-
...NORTHERN AND CENTRAL MISSOURI...

CITY           SKY/WX    TMP DP  RH WIND       PRES   REMARKS
ST. JOSEPH     CLEAR     46  43  89 CALM      30.01S
MOSBY          SUNNY     45  45 100 CALM      29.99F
WARRENSBURG    CLEAR     46  39  76 W3        29.98F
WHITEMAN AFB   CLEAR     47  40  77 W2        29.96F
CLINTON        CLEAR     48  41  76 W6        29.98F
SEDALIA        CLEAR     52  39  61 W9        29.97F
WARSAW         NOT AVBL
CHILLICOTHE      N/A     46  40  79 CALM      29.99S
KIRKSVILLE     CLEAR     43  36  76 NW6       29.96S

$$

MOZ041-047>049-056>058-063>065-088>090-097-050900-
...EASTERN AND SOUTHERN MISSOURI...

CITY           SKY/WX    TMP DP  RH WIND       PRES   REMARKS
ST. LOUIS INTL PTCLDY    49  39  68 NW6       29.88F
SPIRIT OF STL  CLEAR     50  39  66 NW6       29.89S
COLUMBIA       CLEAR     48  38  68 NW6       29.94S
JEFFERSON CITY CLEAR     46  41  82 CALM      29.94S
ROLLA          CLEAR     48  37  65 NW8       29.91F
OSAGE BEACH    CLEAR     45  36  70 W3        29.95F
SPRINGFIELD    CLEAR     47  38  71 CALM      29.97F
JOPLIN         CLEAR     46  42  86 CALM      30.01F
WEST PLAINS    CLEAR     46  35  65 W6        29.95F

$$

IAZ060-094-KSZ022-034>040-054-083-096-NEZ052-066-093-050900-
...KANSAS...SOUTHEAST NEBRASKA AND IOWA...

CITY           SKY/WX    TMP DP  RH WIND       PRES   REMARKS
TOPEKA         CLEAR     47  43  86 CALM      30.02F
MANHATTAN      CLEAR     42  39  89 CALM      30.05S
EMPORIA        CLEAR     49  41  74 W3        30.04S
CHANUTE        CLEAR     46  41  82 NW3       30.03S
WICHITA        CLEAR     50  41  71 N6        30.04F
OMAHA          CLEAR     46  42  86 NW5       30.02S
LINCOLN        CLEAR     44  39  82 N3        30.05F
FALLS CITY     CLEAR     44  39  82 NW6       30.01F
LAMONI         CLEAR     47  38  71 N7        29.99S
DES MOINES     CLEAR     47  37  68 NW3       29.99S

$$





USA.gov is the U.S. government's official web portal to all federal, state and local government web resources and services.